User: anonymous   Login
Location: Asheville, NC
(35.6000°N, 82.5500°W)
Time: 03:01:08
(UTC-04:00)
Language:

UWE-3 - Orbit

View from above orbital plane
View from above orbital plane
View from above satellite
View from above satellite

Ground track
Ground track

The orbit data is extracted from the following two-line orbital elements,

1 39446U 13066AG  18290.00465119  .00000222  00000-0  36042-4 0  9993
2 39446  97.5886 304.6071 0071190 137.5865 223.0880 14.78268572263111
Epoch (UTC): 17 October 2018 00:06:41
Eccentricity: 0.0071190
inclination: 97.5886°
perigee height: 585 km
apogee height: 685 km
right ascension of ascending node: 304.6071°
argument of perigee: 137.5865°
revolutions per day: 14.78268572
mean anomaly at epoch: 223.0880°
orbit number at epoch: 26311

The dashed part of the orbit path shows where the satellite is in the earth's shadow,  

DLR